Regional Weather Roundup
Issued by NWS

Home | Current Version | Previous Version | Text Only | Print | Product List | Glossary Off
Versions: 1 2 3 4 5 6 7 8 9 10 11 12 13 14 15 16 17 18 19 20 21 22 23 24 25 26 27 28 29 30 31 32 33 34 35 36 37 38 39 40 41 42 43 44 45 46 47

000
ASUS43 KDMX 140307
RWRIA

WEATHER ROUNDUP FOR IOWA
NATIONAL WEATHER SERVICE DES MOINES IA
1000 PM CDT SAT SEP 13 2014

NOTE: "FAIR" INDICATES FEW OR NO CLOUDS BELOW 12,000 FEET WITH NO
SIGNIFICANT WEATHER AND/OR OBSTRUCTIONS TO VISIBILITY.

* - THESE STATIONS ARE NOT NWS STATIONS...THUS NOT UNDER NWS
QUALITY CONTROL.  THEY ALSO DO NOT REPORT WEATHER SUCH
AS PRECIPITATION OR FOG.

IAZ001>003-012>014-020>022-031>034-043>046-140400-
   NORTHWEST IOWA

CITY           SKY/WX    TMP DP  RH WIND       PRES   REMARKS
CARROLL *      CLOUDY    48  45  87 S5        30.24S
CHEROKEE *     CLOUDY    52  45  76 S6        30.21S
DENISON *      CLOUDY    54  45  71 S7        30.21S
LE MARS *        N/A     52  45  76 S8        30.20R
ORANGE CITY *  MOCLDY    52  45  76 S7        30.19S
SHELDON *      CLOUDY    50  45  81 S9        30.17F
SIOUX CITY     CLOUDY    56  44  64 S7        30.20S
SPENCER        CLOUDY    52  42  69 S8        30.20F
STORM LAKE *   CLOUDY    50  48  93 S5        30.22S
$$

IAZ055>058-069>071-079>083-090>094-140400-
   SOUTHWEST IOWA

CITY           SKY/WX    TMP DP  RH WIND       PRES   REMARKS
ATLANTIC *     CLOUDY    52  46  82 S6        30.25R
AUDUBON *      CLOUDY    52  48  87 CALM      30.25S
CLARINDA *     CLEAR     45  45 100 CALM      30.28S
COUNCIL BLFS * CLOUDY    54  45  71 S7        30.22F
CRESTON *      CLEAR     48  41  76 S8        30.26S
HARLAN  *      CLOUDY    52  48  87 CALM      30.27S
LAMONI         CLEAR     51  41  68 S5        30.26F
SHENANDOAH *   PTCLDY    48  45  87 S7        30.26S
$$

IAZ047>049-059>061-072>074-084-140400-
   CENTRAL IOWA

CITY           SKY/WX    TMP DP  RH WIND       PRES   REMARKS
AMES           CLEAR     45  43  93 CALM      30.25S
ANKENY *       CLEAR     46  45  93 CALM      30.25F
CHARITON *     CLEAR     46  43  87 S6        30.27S
DES MOINES     PTCLDY    51  43  74 SE7       30.26S
GRINNELL*      CLEAR     46  41  81 SE6       30.28S
KNOXVILLE *    CLEAR     48  43  81 SE5       30.26S
MARSHALLTOWN   CLEAR     48  41  76 SE7       30.26S
PELLA *        CLEAR     46  43  87 SE3       30.28F
PERRY *          N/A     45  43  93 S3        30.25S
$$

IAZ004>006-015-016-023>025-035-036-140400-
   NORTH CENTRAL IOWA

CITY           SKY/WX    TMP DP  RH WIND       PRES   REMARKS
ALGONA *       CLOUDY    50  45  81 S6        30.23S
CLARION *        N/A     45  41  87 S6        30.25R
ESTHERVILLE    CLOUDY    48  44  86 S7        30.20S
FORT DODGE *     N/A     46  39  76 S5        30.24S
MASON CITY     CLEAR     42  39  89 S7        30.25S
FOREST CITY *  MOCLDY    43  41  93 S5        30.23S
IOWA FALLS *     N/A     45  41  87 S6        30.26S
$$

IAZ007>011-017>019-026>030-037>042-050>054-066-140400-
   NORTHEAST IOWA

CITY           SKY/WX    TMP DP  RH WIND       PRES   REMARKS
CEDAR RAPIDS   CLEAR     44  41  89 S3        30.28S
CHARLES CITY * CLEAR     45  41  87 S5        30.26S
CLINTON *      CLEAR     45  39  81 CALM      30.33S
DECORAH *      CLEAR     45  39  81 S5        30.25S
DUBUQUE        CLEAR     45  38  76 SE3       30.29F
MONTICELLO *   CLEAR     41  41 100 CALM      30.29S
OELWEIN *      CLEAR     43  39  87 S6        30.27S
WATERLOO       CLEAR     46  40  79 S3        30.26R
$$

IAZ064-065-067-068-078-140400-
   EAST CENTRAL IOWA

CITY           SKY/WX    TMP DP  RH WIND       PRES   REMARKS
DAVENPORT      CLEAR     44  39  82 E3        30.31S
IOWA CITY      CLEAR     46  43  89 CALM      30.30S
MT. PLEASANT * CLEAR     45  41  87 CALM      30.30S
MUSCATINE *    PTCLDY    45  43  93 CALM      30.31S
QUAD CITIES    CLEAR     44  41  89 CALM      30.31S
$$

IAZ062-063-075>077-085>089-095>099-140400-
   SOUTHEAST IOWA

CITY           SKY/WX    TMP DP  RH WIND       PRES   REMARKS
BURLINGTON     CLEAR     43  42  97 CALM      30.30S
FAIRFIELD *    CLEAR     46  41  81 CALM      30.29F
FORT MADISON * CLEAR     46  45  93 CALM      30.30F
KEOKUK *       FOG       46  45  93 CALM      30.29F VSB 3/4
OSKALOOSA *      N/A     46  43  87 SE6       30.28F
CENTERVILLE *    N/A     45  45 100 SE5       30.29S
OTTUMWA        CLEAR     44  41  89 SE6       30.27F
WASHINGTON *   CLEAR     45  43  93 CALM      30.29F
$$

ABBREVIATIONS USED IN REMARKS
   TC - TEMPERATURES IN CELSIUS
  WCI - WIND CHILL INDEX
   HX - HEAT INDEX
  VSB - VISIBILITY
$$




USA.gov is the U.S. government's official web portal to all federal, state and local government web resources and services.